Theta_e
315 314 314 314 314 313 313 312 312 311 309 323 320 324 309 308 305 315 317 318 314 308 302 305 303 300 300 303 303 303 302 301 302 302 303 301 303 302 301 300 299 300 300 300 300 300 297 299 298 299 298 298 300 301 302 303 303 304 300 302 301 305 300 296 295 298 299 301 302 302 301 301 301 302 302 302 300 301 300 301 305 301 302 300 302 300 298
315 314 314 314 314 312 312 311 312 311 309 317 321 318 310 308 307 310 315 318 313 306 299 298 299 300 302 302 300 303 301 301 301 300 301 301 301 300 300 301 303 300 302 301 298 301 295 298 298 297 300 297 301 301 302 304 302 303 300 302 301 298 300 300 294 294 295 296 300 299 301 302 299 299 300 301 302 302 302 304 308 302 302 301 300 296 298
314 314 314 314 313 312 311 311 311 312 310 312 319 315 311 310 311 309 311 315 313 303 304 302 300 300 299 299 298 299 299 301 302 301 300 303 302 301 299 301 302 300 302 300 301 301 300 296 300 299 299 298 301 300 301 304 303 303 304 304 305 300 300 299 293 290 287 288 289 292 294 297 299 299 298 299 299 300 302 299 303 296 304 306 301 299 304
314 314 314 314 313 312 312 312 312 311 310 307 322 316 316 306 302 306 307 310 308 307 309 305 302 300 300 298 299 300 298 300 302 302 301 303 302 302 302 302 303 300 300 299 299 299 302 300 297 299 297 298 299 300 301 301 303 304 303 303 303 300 300 301 298 297 295 296 297 297 300 299 296 295 296 297 299 300 302 303 302 298 303 302 301 304 304
315 315 314 314 313 312 312 312 312 311 309 307 321 319 314 310 304 305 301 307 306 304 306 304 304 301 303 298 299 297 298 299 300 303 299 301 301 301 301 300 299 299 299 298 298 299 299 301 301 299 298 299 299 300 301 301 302 303 301 302 303 300 297 297 298 298 298 297 296 297 298 297 296 295 295 296 297 298 300 300 298 303 302 296 301 306 305
315 315 315 314 313 313 313 312 311 310 309 306 321 311 313 303 305 309 307 302 299 302 301 305 302 302 303 300 301 298 298 298 297 300 302 302 303 299 301 301 301 301 299 299 297 299 299 299 297 299 299 298 299 299 300 299 301 302 300 302 301 298 295 296 296 295 296 297 296 297 297 296 296 295 295 295 296 297 298 298 298 302 300 298 300 305 307
315 314 315 315 313 313 313 313 311 310 308 310 325 309 310 310 309 307 310 304 303 303 303 304 303 302 303 300 301 298 298 296 299 299 299 300 300 302 296 297 299 300 300 301 298 299 295 295 300 299 298 298 299 297 298 299 301 301 300 300 303 300 296 296 296 294 295 295 296 296 295 295 295 295 295 296 295 296 297 297 298 299 301 302 304 306 306
314 314 314 315 314 313 314 312 311 310 308 318 321 316 311 307 308 304 308 308 305 305 304 303 303 300 302 301 299 300 298 297 299 300 300 297 298 302 298 298 300 301 301 302 298 299 300 299 297 300 299 297 300 299 299 298 300 300 298 299 302 300 295 296 295 295 293 294 295 297 295 294 294 294 295 295 295 296 296 297 297 299 300 302 305 306 305
314 314 314 314 314 313 314 313 311 310 311 322 317 314 317 314 317 319 308 304 304 306 304 303 303 301 302 300 300 300 299 299 300 299 303 300 299 300 298 299 300 301 301 300 299 301 301 301 300 301 301 297 300 299 299 300 298 298 298 300 299 299 298 297 295 293 292 293 294 293 295 294 293 293 294 294 294 294 295 296 299 299 301 302 304 303 305
314 314 314 314 314 314 314 313 311 310 312 322 319 311 319 319 318 319 312 302 304 302 303 303 303 299 302 303 302 301 299 301 302 298 301 303 304 303 301 302 301 300 300 299 300 302 303 303 303 304 303 303 302 302 301 300 300 299 299 300 298 299 296 293 294 291 292 294 293 293 292 293 290 291 294 296 296 299 299 300 300 303 306 301 298 300 309
314 314 314 314 315 315 315 314 313 310 320 320 321 315 318 317 313 312 310 303 303 304 303 301 302 301 302 302 301 302 301 301 303 300 298 302 301 305 304 303 302 301 301 303 307 307 306 306 305 305 304 303 302 302 301 300 301 300 300 299 299 299 298 296 298 291 293 293 293 294 292 286 288 298 300 299 296 296 296 297 301 305 303 305 309 309 311
314 314 314 314 315 315 315 315 313 309 313 323 324 318 319 320 319 315 308 302 300 304 304 301 302 301 302 302 302 301 301 301 302 306 300 301 302 304 304 304 306 300 306 310 309 308 308 307 306 306 303 302 301 301 301 299 300 303 302 301 299 297 298 297 297 293 292 294 293 291 285 287 297 301 302 301 301 299 298 301 302 305 305 307 306 308 308
314 314 314 314 314 315 315 315 314 311 310 323 323 318 320 320 317 312 309 306 301 304 301 301 304 303 303 303 302 303 303 303 304 305 303 302 302 304 306 305 304 305 310 308 308 306 302 300 301 301 300 302 301 301 300 300 300 301 302 302 301 298 297 298 295 296 296 293 291 283 285 295 299 300 302 305 303 302 300 298 301 305 306 307 306 308 308
314 314 314 314 314 314 315 315 314 313 309 315 322 320 321 322 320 315 311 305 302 305 305 303 303 302 303 303 303 303 304 304 305 306 303 305 304 304 306 308 308 310 310 309 306 304 300 301 296 296 297 299 298 297 300 300 301 301 301 302 302 301 300 298 295 298 289 292 291 290 297 295 296 296 299 300 299 300 298 294 300 306 308 307 306 307 307
314 314 314 314 314 314 314 315 315 314 312 309 325 321 321 321 320 318 315 313 302 304 307 302 303 304 304 304 304 303 304 304 303 304 307 307 306 308 308 309 311 310 310 308 303 303 301 299 294 293 294 292 287 291 299 296 302 302 303 303 304 304 299 300 295 294 296 292 289 290 290 286 293 299 304 307 307 307 305 298 301 308 308 308 307 307 307
313 314 314 313 313 314 314 314 314 313 312 309 324 322 322 322 323 322 316 311 307 300 303 308 307 305 305 304 305 304 303 303 305 304 303 305 306 307 309 311 311 311 308 306 305 301 299 295 293 292 290 292 296 294 291 298 296 300 302 302 302 303 303 302 296 295 295 291 288 287 285 290 301 302 304 305 307 305 307 297 293 306 308 306 308 306 307
313 313 314 313 313 313 314 314 314 313 313 309 321 322 321 324 321 320 319 312 310 302 308 309 309 308 307 304 304 303 306 303 304 301 301 303 305 307 308 310 312 310 308 304 302 299 297 295 297 295 295 298 291 289 297 291 291 296 299 300 300 299 298 297 294 293 294 293 289 287 294 291 301 305 304 304 307 303 303 290 291 304 308 307 307 305 306
313 314 314 313 313 313 313 314 313 314 313 310 319 322 321 325 325 324 321 312 307 305 309 309 308 306 305 307 304 308 308 307 306 306 304 306 307 305 307 307 306 309 309 303 302 298 297 296 290 290 290 300 300 296 286 291 287 293 294 295 294 295 296 296 292 293 293 291 291 294 295 303 305 304 305 305 305 302 294 288 299 306 307 309 308 308 307
313 313 313 313 313 313 313 313 313 313 314 309 319 323 323 324 326 327 322 315 310 306 310 311 314 311 312 310 311 309 309 309 308 302 303 301 304 309 308 309 310 303 306 302 301 297 295 296 298 297 293 296 297 289 295 288 288 297 298 294 295 296 296 296 296 293 292 294 291 291 296 302 306 307 306 307 301 290 291 303 309 309 307 308 307 306 307
313 313 313 313 312 312 313 313 312 313 313 311 314 322 321 324 325 324 319 313 313 309 312 311 310 308 311 309 307 306 307 306 308 305 303 300 310 307 304 301 305 307 304 305 297 301 296 294 296 298 293 295 294 301 293 293 299 291 296 299 294 295 292 292 292 295 295 295 292 290 285 301 306 307 304 305 295 298 305 307 309 308 308 307 308 308 307
313 313 313 313 312 312 312 313 312 312 313 313 310 322 322 324 324 325 325 319 314 309 311 315 315 313 313 311 311 311 310 307 308 304 307 307 310 307 295 298 303 303 301 301 296 297 299 295 298 296 300 298 299 296 290 291 291 301 300 299 297 301 291 292 295 298 290 290 288 289 298 304 308 305 299 304 303 309 309 306 306 308 307 307 307 308 309
313 313 313 312 312 312 312 312 312 312 312 313 310 319 320 322 323 323 324 322 317 312 314 317 317 316 317 317 317 317 314 312 314 314 310 308 311 307 308 307 305 305 307 306 301 299 299 300 302 297 295 296 302 294 299 291 289 298 303 301 289 302 297 300 294 301 295 294 297 303 305 307 309 308 307 310 311 312 312 308 306 305 306 309 307 306 308
313 312 312 312 312 311 312 312 312 312 311 313 314 320 320 320 321 322 324 319 322 320 320 318 318 318 318 318 320 320 320 320 318 316 315 310 307 308 307 306 305 310 311 309 303 302 302 302 298 301 298 299 294 296 299 296 292 298 292 301 298 306 305 307 301 298 304 305 305 307 305 306 307 308 311 310 311 311 308 307 305 307 307 308 307 308 307
312 312 312 312 312 311 311 312 312 311 311 312 313 318 318 318 317 320 321 318 313 310 315 317 313 312 312 313 317 320 319 318 319 319 321 318 307 308 310 311 313 311 310 312 314 306 305 304 302 303 296 301 302 295 291 291 295 299 298 298 300 303 305 302 297 302 297 292 305 303 303 305 306 307 311 312 311 310 309 308 307 307 309 308 308 308 308
312 312 312 312 312 311 311 312 312 311 311 312 314 316 317 318 319 319 317 310 311 309 303 307 310 315 315 319 320 318 319 321 322 321 318 318 314 308 307 313 314 310 309 313 313 309 307 301 302 300 296 303 303 294 302 296 295 303 294 298 299 299 307 300 299 300 298 297 304 306 308 308 308 307 307 307 309 310 311 309 310 310 310 309 309 309 307
312 312 311 311 311 311 311 311 311 311 311 311 311 315 315 316 318 319 319 319 316 313 305 304 309 315 318 315 315 317 319 319 319 318 318 318 317 316 315 316 315 316 315 314 312 307 305 304 304 302 299 299 306 299 298 301 300 303 298 298 303 304 304 296 301 298 300 304 305 306 307 305 306 307 308 309 309 310 311 310 309 310 309 309 309 309 308
312 311 311 311 311 311 311 311 311 311 311 311 314 315 314 315 316 317 318 318 312 309 309 305 311 314 316 313 315 317 317 318 317 317 317 317 317 317 316 316 314 314 312 311 311 309 307 304 303 300 302 302 305 303 303 301 300 299 298 302 305 302 298 302 301 297 297 297 301 305 298 299 303 306 307 308 309 310 310 310 309 309 309 309 308 308 309
311 311 311 311 310 311 311 312 311 311 310 310 312 315 316 314 316 316 317 317 315 308 307 307 308 313 317 310 314 316 317 317 316 316 315 316 316 316 315 315 315 312 312 308 304 305 303 300 300 306 305 306 302 300 304 305 302 300 300 302 304 299 301 300 297 296 296 303 305 306 306 305 305 307 308 309 310 310 309 309 309 309 309 310 309 308 308
311 311 311 310 310 310 310 311 311 311 310 311 316 315 314 315 316 315 315 317 317 315 313 313 315 314 306 310 315 315 317 317 316 315 315 315 315 315 314 314 314 313 312 310 308 307 304 304 308 304 302 309 304 300 302 296 296 295 300 306 306 306 307 304 303 304 304 306 306 308 306 303 306 308 309 309 311 310 309 310 310 310 310 310 309 309 308
310 311 311 310 310 310 310 311 311 311 311 315 315 314 313 313 315 316 315 317 318 317 310 307 304 308 316 314 313 314 315 317 316 316 315 314 314 315 315 315 315 315 314 311 309 303 306 306 309 310 310 312 303 300 297 298 296 298 304 307 308 308 308 307 308 305 303 308 308 309 308 308 309 309 310 310 311 310 309 309 310 310 310 311 310 309 310
310 310 310 309 309 309 310 310 311 310 310 315 313 311 309 306 313 316 313 318 319 315 311 309 306 311 309 315 314 313 314 315 316 315 314 314 316 317 317 317 317 316 310 311 309 308 310 304 305 306 308 308 306 300 296 295 293 297 303 305 305 305 308 309 310 310 308 308 308 308 309 309 309 309 309 309 310 310 310 310 311 311 311 310 310 310 309
310 310 309 309 309 309 310 310 311 311 313 313 313 312 312 312 315 316 314 316 318 315 310 305 305 307 307 311 314 315 315 315 316 316 316 316 316 316 316 315 313 316 313 310 310 307 304 308 307 307 306 307 303 299 299 296 292 295 302 302 305 306 309 309 309 309 309 308 308 306 306 307 308 306 305 309 309 310 309 310 311 311 310 310 310 310 309
309 309 309 308 309 309 310 310 310 311 313 313 310 308 310 309 309 312 315 318 317 313 313 307 303 305 305 309 315 314 314 315 314 314 314 317 315 315 313 314 313 311 313 308 303 302 307 307 307 303 307 309 301 299 297 295 297 303 304 304 305 307 307 308 308 309 309 310 309 304 303 306 308 310 309 310 310 309 309 309 310 311 310 309 308 308 309
309 308 308 309 310 310 310 309 310 308 309 312 314 315 316 310 312 310 318 319 315 315 314 307 302 302 305 313 308 312 315 310 311 312 309 315 317 313 312 312 313 306 309 304 308 306 308 307 303 304 306 302 303 298 293 298 302 302 303 305 306 307 307 307 308 309 310 310 312 311 309 310 311 311 310 309 309 310 311 311 309 308 308 307 308 307 308
309 309 309 311 311 311 310 310 312 315 315 316 317 320 317 311 312 312 315 316 308 306 306 307 307 302 303 305 304 309 316 312 310 313 307 313 317 310 312 308 311 303 306 311 306 306 304 304 308 301 298 305 299 291 295 298 300 302 303 304 305 306 307 305 306 308 308 309 310 310 311 311 309 307 307 308 308 309 309 309 308 308 306 307 307 307 307
310 311 311 311 311 311 313 311 315 316 316 314 316 315 313 313 313 318 319 317 313 307 306 306 306 302 303 300 300 308 316 309 312 313 314 313 310 315 311 309 302 307 313 306 302 305 303 309 303 296 305 294 294 296 297 300 300 301 303 303 305 305 305 305 305 307 308 310 310 309 308 307 306 306 307 307 307 308 309 308 308 308 307 306 307 307 307
311 312 311 311 312 314 314 315 317 317 316 318 317 316 315 316 317 317 315 315 317 316 308 306 303 303 304 303 306 310 311 302 310 307 312 309 304 309 308 306 302 306 306 304 303 302 304 309 302 296 298 293 293 301 301 300 300 301 302 304 305 307 306 307 307 307 307 308 308 307 305 305 306 306 305 304 305 306 308 307 307 307 305 305 306 305 306
311 312 313 313 314 314 312 313 315 317 316 314 315 314 313 315 309 309 311 308 313 313 311 310 303 306 310 305 302 314 310 307 311 304 305 311 305 305 310 305 303 304 296 300 301 310 308 304 299 297 297 301 300 301 300 301 303 304 304 304 305 306 307 307 306 305 305 305 305 306 305 305 305 305 303 304 305 305 306 308 309 307 307 307 306 306 306
310 312 313 315 314 311 311 313 319 317 318 319 318 312 310 312 308 304 305 307 309 306 311 307 305 309 307 305 307 316 309 305 303 306 300 309 302 298 305 297 305 302 295 298 301 309 297 299 299 296 294 297 298 298 301 303 303 304 304 305 306 306 307 306 307 306 305 305 306 307 307 304 303 303 304 305 306 308 308 309 308 307 307 307 306 306 305
313 311 312 312 311 313 317 317 317 317 317 311 313 310 304 309 303 298 310 301 301 308 308 303 310 308 309 306 304 305 317 308 302 301 303 305 311 300 305 302 305 298 292 294 298 305 296 290 298 294 293 296 297 300 302 300 301 301 302 302 304 306 307 306 307 307 308 309 310 308 308 307 307 306 306 306 308 308 308 308 308 308 307 307 306 306 304
313 313 313 311 315 317 318 320 320 318 313 308 308 309 306 299 308 308 305 302 301 303 311 309 311 308 311 311 310 304 315 315 314 313 307 301 311 307 300 295 306 295 294 292 302 301 299 295 292 292 295 297 300 301 302 301 300 300 301 302 304 305 305 307 307 308 308 307 306 307 308 309 308 308 310 311 310 310 308 307 307 307 307 306 305 305 306
314 314 315 317 317 319 318 316 314 311 310 311 302 295 301 304 308 307 308 299 300 305 309 309 306 306 307 310 309 310 312 317 314 309 304 297 305 301 298 301 301 292 288 300 304 300 297 288 290 291 295 298 300 302 302 301 301 300 301 302 303 305 305 305 306 308 308 307 307 307 308 308 309 310 311 310 311 309 307 307 307 307 306 306 306 305 305
307 312 316 314 314 312 313 303 309 309 296 295 294 291 300 295 300 301 304 308 312 308 310 315 312 314 315 316 312 314 309 313 308 307 302 299 307 304 299 296 295 288 296 305 299 294 290 288 290 295 297 298 299 299 298 300 300 302 302 303 304 304 305 305 306 307 309 308 307 306 307 308 311 312 313 313 311 309 309 308 308 306 306 306 305 306 305
315 315 312 314 309 311 310 293 310 304 295 296 294 290 298 299 301 303 300 304 306 306 310 305 308 307 303 312 306 306 311 311 311 308 304 306 301 297 295 290 293 301 304 298 296 290 292 296 295 294 298 299 300 300 299 299 299 299 300 302 303 304 304 304 305 306 307 308 307 307 308 308 307 310 311 310 310 308 307 307 307 307 306 306 305 305 305
311 308 307 305 301 305 299 291 307 298 292 297 299 301 301 298 302 303 302 310 308 305 309 311 309 309 304 310 310 310 307 302 310 301 297 302 297 299 294 293 299 300 294 289 291 291 293 291 296 297 297 297 298 299 299 300 300 300 300 301 302 303 303 303 304 305 306 306 306 306 306 307 306 305 305 305 306 307 306 305 306 306 305 305 304 304 304
309 303 301 295 290 296 297 293 295 293 304 306 304 307 305 307 306 306 312 312 308 310 308 309 310 309 305 308 301 301 305 307 300 302 304 303 293 291 300 303 301 294 291 290 287 286 288 293 295 296 298 298 298 298 299 299 300 300 299 298 300 301 302 303 303 305 306 306 306 305 306 305 306 306 306 307 307 306 306 306 306 305 304 304 303 303 304
310 310 304 300 294 297 306 295 299 304 306 307 309 309 309 310 312 311 312 313 311 313 312 314 311 309 303 304 304 303 307 306 299 304 302 297 294 295 302 295 288 289 285 283 284 287 290 293 295 296 297 297 297 298 298 298 299 299 299 300 300 300 302 302 302 303 305 306 305 304 305 305 305 305 306 304 305 306 307 307 306 306 305 303 304 304 304
299 306 306 294 292 298 297 304 308 309 310 310 310 312 312 313 311 312 315 314 315 314 312 310 307 304 303 312 305 298 300 302 298 298 301 297 298 293 289 289 289 290 289 287 287 291 291 293 295 296 296 297 297 296 296 297 298 298 298 298 299 300 300 301 301 302 303 304 305 305 305 305 304 305 304 304 304 305 306 306 306 306 306 305 305 304 304
311 301 298 297 304 304 305 308 307 305 308 310 311 310 310 311 310 311 313 315 314 314 313 309 306 303 298 302 299 298 296 301 292 291 298 295 289 285 286 283 285 283 289 291 290 292 293 294 296 297 297 297 297 297 297 298 298 298 298 299 300 300 300 300 301 302 304 304 304 304 304 305 304 305 306 305 303 304 306 307 306 306 306 305 304 304 304
302 301 306 301 303 306 308 310 307 305 308 308 309 310 312 310 309 312 315 314 315 315 313 310 309 301 300 299 292 296 295 298 296 294 293 290 290 290 288 283 286 286 288 292 292 294 295 296 296 295 296 296 297 297 297 297 299 300 300 301 301 302 302 302 302 304 304 305 304 303 306 306 306 305 305 304 304 305 306 306 306 306 306 305 305 304 304
308 302 304 310 306 306 307 303 304 303 304 307 309 311 312 310 310 312 316 316 313 310 305 299 300 297 294 293 292 288 292 299 295 292 290 289 292 289 286 285 288 291 292 294 295 296 296 296 295 295 295 296 297 297 298 299 299 300 299 298 300 301 302 303 302 303 305 306 305 305 306 305 305 307 306 306 306 305 305 306 307 307 306 306 305 304 304
300 298 305 310 311 309 309 309 310 309 308 309 311 313 314 311 314 317 319 316 309 302 299 302 300 294 290 288 294 296 298 295 292 292 289 292 294 289 289 289 292 293 294 294 294 295 296 296 296 297 295 296 297 298 299 299 299 298 300 300 300 301 302 302 303 304 305 305 305 304 303 305 306 307 306 306 306 305 304 305 306 307 306 307 306 305 304
Wind_Speed
18 19 20 20 20 21 22 22 22 22 23 7 5 5 2 6 5 3 8 8 9 1 8 6 6 7 5 4 6 3 5 6 6 6 6 4 5 6 8 6 3 6 3 5 7 5 6 5 7 8 9 9 8 6 6 6 4 6 4 4 4 6 2 5 6 6 7 5 2 1 2 2 6 3 4 3 1 3 6 6 7 7 7 8 6 4 8
18 18 19 19 20 20 21 21 21 19 15 5 6 4 4 4 5 3 8 5 5 5 5 6 7 7 8 8 10 8 10 9 8 9 10 6 6 7 5 8 9 7 4 3 5 2 3 4 5 5 3 6 5 6 7 8 4 7 5 5 6 4 2 5 5 5 6 7 6 4 1 4 2 3 4 5 3 2 3 6 3 8 3 6 8 8 8
17 17 18 19 19 20 20 20 20 18 13 5 3 4 3 1 2 5 7 7 5 5 4 6 6 6 7 5 6 5 6 7 10 9 9 7 6 4 7 6 4 6 4 6 4 4 3 6 3 6 6 7 3 7 7 8 7 7 7 6 5 4 3 3 6 8 9 9 9 7 8 5 4 4 3 5 5 4 3 9 7 7 2 5 8 7 10
16 17 18 18 19 20 20 20 20 19 14 6 4 4 4 3 1 2 5 4 7 7 4 5 6 6 7 7 6 6 8 7 7 7 11 9 10 8 6 5 5 6 5 6 6 6 4 2 6 5 5 5 4 5 5 8 7 7 6 6 3 1 2 3 5 6 5 7 7 4 3 4 4 4 3 5 4 4 4 3 5 7 6 5 8 9 13
16 17 18 18 19 20 20 20 20 19 13 5 3 1 4 0 2 3 3 3 6 6 4 4 3 4 3 2 2 6 6 5 7 9 4 6 6 7 6 2 1 3 4 7 7 6 9 9 8 5 7 5 5 4 6 6 8 5 1 3 2 2 3 3 4 6 6 6 6 6 5 3 4 1 3 3 4 4 4 3 0 6 4 6 6 8 11
18 19 20 19 19 20 21 21 20 19 14 5 4 2 3 0 3 1 4 4 2 1 5 5 4 3 1 5 1 4 4 4 5 7 7 3 4 0 4 5 6 4 4 3 4 5 7 5 7 5 6 5 4 4 5 5 4 4 3 3 2 2 2 3 1 5 4 4 6 5 3 3 2 2 1 2 2 3 3 4 4 3 4 4 11 5 10
18 19 20 19 19 20 21 22 22 20 17 4 4 2 4 3 4 3 2 2 4 5 5 4 4 7 5 4 1 4 4 6 6 4 5 5 5 4 5 6 5 4 2 1 7 5 4 5 4 3 5 3 2 2 4 4 3 2 4 3 3 3 3 2 2 5 4 4 3 3 2 1 2 1 1 0 0 1 2 3 3 3 6 7 9 8 8
18 19 19 19 18 19 21 22 23 23 20 7 2 6 3 3 1 5 2 4 4 3 2 2 0 5 1 1 4 3 3 6 5 4 4 5 6 4 9 8 7 6 6 5 5 5 7 6 6 4 3 4 2 3 5 3 3 3 3 1 3 6 4 2 4 4 4 3 3 2 1 1 3 2 2 3 3 3 2 2 3 3 4 6 8 8 7
17 17 18 17 17 18 19 21 23 24 20 2 5 4 5 3 3 4 0 3 4 1 2 1 1 3 3 3 5 3 5 7 6 8 7 6 7 6 9 8 8 8 9 8 9 6 7 6 7 5 2 2 3 4 4 3 1 1 1 1 1 5 4 3 3 5 5 4 2 3 3 3 5 4 5 5 7 6 6 5 3 4 5 5 6 6 6
15 16 16 17 16 16 17 19 22 23 20 3 3 5 1 0 0 3 4 2 1 1 2 2 4 4 4 4 5 1 7 5 2 7 5 6 7 7 6 6 6 7 8 9 7 5 5 5 4 2 3 2 3 2 3 1 3 1 2 2 0 1 3 5 5 5 3 5 3 1 4 6 8 10 8 6 3 2 4 3 2 1 2 5 6 2 5
14 15 15 16 15 15 16 17 19 21 12 6 4 4 3 4 3 1 2 2 2 1 1 3 2 4 5 5 7 4 6 4 2 2 4 4 6 4 3 3 3 6 7 6 5 4 4 3 2 1 1 1 2 2 2 1 1 3 2 1 2 1 3 1 1 5 3 3 1 4 5 8 3 9 7 3 4 6 6 6 6 3 4 2 6 6 4
13 13 14 14 14 14 14 16 16 18 13 4 3 3 4 4 4 3 3 1 3 1 2 4 4 5 4 5 4 6 5 3 5 2 7 5 6 3 4 4 2 5 5 3 2 2 2 2 3 2 0 1 1 1 2 2 2 3 2 3 1 2 2 1 1 4 3 4 3 5 7 3 7 5 6 2 1 2 2 4 3 3 3 1 3 3 5
12 12 12 13 13 13 13 14 14 15 14 6 5 4 5 3 4 4 3 2 3 2 3 5 4 4 5 6 6 6 5 5 4 5 7 6 5 3 3 3 4 7 3 3 4 3 4 4 3 1 2 1 1 2 3 3 2 2 2 1 4 2 4 2 4 3 0 3 5 4 2 7 4 5 4 4 2 1 3 5 6 6 4 4 4 5 5
11 11 11 11 12 12 13 13 13 14 15 10 5 5 4 5 4 3 3 1 4 2 4 6 5 6 5 5 6 7 6 6 5 3 5 3 4 4 4 3 5 2 2 2 2 4 4 4 4 5 5 4 3 4 4 2 1 2 3 4 3 4 2 4 3 2 3 4 6 3 6 5 5 5 7 7 4 6 6 4 9 8 5 3 2 4 3
9 10 10 10 10 10 12 11 12 13 14 13 2 4 5 5 4 4 2 4 3 3 3 1 5 6 5 5 5 5 5 6 5 5 3 2 2 4 4 4 2 1 2 5 3 4 3 2 4 4 4 4 3 4 5 5 4 2 2 3 4 3 6 1 5 3 5 5 5 5 5 7 8 6 6 3 4 5 4 4 4 7 5 3 4 5 5
8 8 8 9 9 9 10 11 11 12 14 16 2 4 5 5 4 4 4 4 0 2 3 3 3 6 5 5 4 4 3 5 3 5 6 5 4 5 4 2 2 1 2 2 2 3 2 4 2 3 2 4 3 3 3 5 4 5 3 2 4 3 4 3 6 4 4 6 6 4 5 2 7 8 6 6 3 3 0 3 7 9 7 6 5 5 5
8 8 7 8 8 8 9 9 10 10 11 14 4 3 4 6 5 4 4 1 3 4 4 3 4 4 3 4 3 4 4 3 5 4 5 6 7 5 5 3 3 3 2 4 3 4 4 4 2 2 2 2 3 0 3 1 2 5 6 6 6 6 6 6 7 7 6 6 6 5 4 0 6 9 7 7 3 2 6 7 3 8 6 6 4 3 3
7 8 7 7 7 7 8 8 9 9 10 14 7 2 3 4 4 4 3 3 3 3 3 5 5 5 3 1 4 4 2 0 3 2 2 5 5 5 5 5 5 2 3 5 2 5 3 3 2 2 1 4 2 2 2 5 2 4 7 7 7 7 6 6 8 7 6 7 6 6 3 5 8 9 9 7 4 4 6 6 7 7 7 5 4 1 1
6 7 7 6 6 7 8 8 9 9 10 11 6 2 3 4 5 4 4 2 4 1 5 3 3 5 4 1 3 3 1 3 2 4 3 4 4 3 4 1 4 2 5 4 3 4 4 2 1 3 2 5 4 1 4 2 3 3 3 7 5 6 6 6 7 8 7 6 8 6 4 5 9 10 9 9 6 6 6 7 8 7 6 4 1 2 2
5 6 6 6 6 6 7 7 8 8 10 11 8 1 3 3 3 5 5 4 2 5 2 4 6 7 4 5 4 5 4 5 4 5 3 1 5 6 4 5 6 3 4 3 6 1 4 3 1 1 3 2 3 2 3 4 2 3 5 5 5 5 6 6 8 6 5 4 7 3 5 5 7 12 9 8 9 2 7 7 5 4 3 1 3 3 2
5 6 5 4 5 5 5 6 7 7 9 9 8 2 2 3 2 3 3 4 4 5 4 3 2 6 5 7 6 4 4 3 4 5 2 3 6 5 4 2 4 5 4 4 5 2 2 3 3 3 3 3 4 3 1 2 3 7 6 4 7 2 5 5 5 5 4 6 6 3 3 7 10 12 5 9 7 5 4 2 4 5 1 3 2 2 1
4 5 5 4 4 4 4 5 6 6 8 8 10 3 2 3 1 2 2 3 4 4 4 3 1 4 5 5 5 4 4 4 4 4 3 4 5 6 4 2 3 3 1 2 2 2 4 2 1 3 4 4 3 4 2 3 3 7 6 3 4 7 8 3 4 5 7 4 3 4 4 4 7 9 3 1 8 5 2 1 2 3 2 2 3 2 2
4 4 4 4 4 3 3 4 5 5 7 9 9 2 3 2 1 2 4 4 3 5 4 4 4 6 7 8 8 7 6 4 3 3 5 5 5 6 6 5 5 2 1 3 6 5 4 1 5 3 5 4 3 5 6 6 3 6 4 11 6 2 4 3 5 7 7 10 10 3 2 3 6 7 1 5 7 5 2 3 3 2 3 2 3 2 3
3 4 4 4 4 3 3 3 4 4 5 5 7 3 1 2 2 3 3 3 2 5 3 3 5 3 2 3 4 5 6 7 7 5 3 4 7 4 4 6 3 3 4 4 2 5 4 5 5 3 7 4 4 5 5 5 7 5 5 6 8 8 5 5 6 2 1 4 5 11 12 8 7 8 7 4 5 5 4 4 5 3 3 3 3 3 3
3 3 4 4 4 3 3 3 3 4 4 6 5 0 2 1 0 3 4 4 2 4 5 2 2 5 4 2 1 3 4 2 4 7 8 8 9 8 4 2 6 5 4 4 3 5 3 7 5 6 9 4 5 6 6 6 4 5 5 6 4 7 9 8 10 10 9 9 1 1 1 4 7 8 9 10 9 7 7 5 4 3 3 4 4 4 5
2 4 4 4 4 3 2 2 3 2 3 6 5 2 2 2 2 2 4 3 2 3 4 2 4 3 1 3 3 0 2 4 5 6 8 9 10 11 8 2 3 2 1 3 5 6 7 7 7 7 8 4 5 7 7 4 6 1 5 6 4 4 9 6 5 9 10 12 13 8 4 5 6 8 10 9 8 9 9 8 7 6 6 7 6 5 5
2 3 3 3 4 2 3 3 2 2 3 4 3 1 1 1 1 3 3 3 4 3 5 3 3 4 3 5 2 1 4 5 6 7 8 9 9 8 8 7 7 5 6 6 6 7 7 8 8 9 8 6 3 7 7 5 5 8 9 6 6 5 9 7 7 11 11 10 7 7 10 9 9 14 13 11 11 9 8 8 8 8 8 7 7 6 6
1 2 3 3 3 3 3 3 2 2 3 3 2 2 1 2 0 2 2 3 4 5 6 5 4 3 3 2 2 2 1 4 5 6 7 8 9 9 8 9 8 7 7 7 8 8 8 10 11 8 8 5 6 9 6 3 3 6 11 8 8 9 10 9 11 11 12 10 9 9 9 11 8 7 3 7 8 10 10 10 10 9 8 7 7 7 6
1 2 2 2 2 3 3 3 1 1 2 7 2 2 2 1 1 2 3 2 3 4 4 6 6 5 3 3 1 3 3 3 4 5 5 6 7 8 8 8 8 8 8 8 8 8 9 9 7 7 5 1 5 6 5 9 9 12 11 10 9 11 11 12 13 15 16 15 13 9 8 10 8 8 6 6 7 8 10 10 10 9 8 8 7 7 7
1 2 2 3 3 2 3 3 2 2 4 3 2 3 4 3 1 2 3 2 2 3 4 5 5 2 2 3 2 1 2 3 3 5 6 5 5 6 6 7 7 7 7 7 6 8 6 7 6 3 2 2 5 3 2 4 8 9 6 4 6 9 12 12 12 13 11 10 12 12 11 12 10 9 10 10 9 9 9 10 10 9 9 8 8 6 7
1 0 1 2 3 3 3 2 2 0 5 2 3 4 4 2 3 1 4 4 1 2 2 2 5 4 3 2 1 1 1 0 1 2 3 1 1 3 3 4 5 5 6 6 5 6 2 5 4 3 3 4 2 2 3 3 5 6 1 2 7 12 12 11 10 11 11 11 12 12 10 10 9 9 10 11 11 10 9 9 9 8 8 8 7 7 7
1 1 2 3 3 3 3 2 3 4 2 2 3 3 4 4 3 2 5 4 2 2 2 4 4 4 1 4 2 0 1 1 3 3 3 2 2 2 2 4 3 4 6 5 2 1 4 3 6 5 4 8 8 3 4 7 10 8 5 6 5 8 8 9 10 10 10 11 12 13 15 14 12 13 10 10 11 11 11 10 10 9 8 8 7 6 6
2 1 1 2 3 3 2 1 1 3 1 5 7 4 2 4 5 1 6 3 3 1 1 2 3 2 2 3 2 4 1 3 3 3 2 0 2 3 3 3 3 3 3 3 4 3 2 4 3 6 5 9 5 3 4 9 11 8 6 6 7 9 10 9 10 10 11 11 11 13 13 11 10 11 12 11 11 12 11 11 10 9 8 8 8 8 7
2 2 2 2 3 3 3 2 1 1 5 5 3 3 5 8 3 5 2 3 2 1 2 2 2 3 1 3 5 5 3 3 1 1 2 3 1 3 2 4 3 3 6 6 1 4 4 3 6 3 5 5 5 3 5 2 4 1 3 5 6 8 8 9 9 10 10 11 11 13 14 13 9 6 8 10 12 12 12 11 11 11 10 9 9 7 6
1 2 4 5 3 4 6 6 5 4 2 3 4 3 5 9 2 4 4 2 2 3 3 3 2 3 3 3 2 4 1 4 2 2 4 2 2 3 1 4 3 4 3 2 4 5 6 5 3 3 6 4 4 3 1 4 6 5 5 6 7 7 8 9 8 9 10 10 11 11 12 12 12 11 10 10 11 12 13 13 12 11 11 10 8 7 6
1 1 2 4 5 5 4 5 2 2 2 3 3 5 8 9 5 5 1 1 2 1 3 1 2 2 3 3 2 3 2 4 1 1 1 2 2 2 2 2 5 3 2 4 5 4 5 5 3 4 3 3 3 3 0 3 4 6 6 7 7 7 7 9 11 13 14 14 13 12 12 13 15 14 11 11 11 12 13 13 11 11 11 8 6 5 4
5 5 6 6 4 3 2 3 2 3 4 4 8 11 12 9 5 2 1 2 3 1 3 3 3 2 2 3 2 1 3 4 0 4 2 3 2 0 2 2 3 1 3 5 5 7 2 2 4 5 5 3 3 3 2 2 3 5 6 7 7 8 8 9 10 12 14 13 13 12 12 13 14 11 10 11 11 12 13 13 12 12 10 8 6 4 3
5 5 4 3 3 4 4 3 3 5 10 13 12 7 5 6 1 2 1 2 3 4 4 3 4 1 1 2 3 3 3 2 1 3 1 1 4 2 1 3 2 1 5 5 2 2 2 2 4 5 3 4 5 4 1 1 3 4 6 7 8 8 9 9 9 10 12 11 11 10 10 11 10 9 11 11 11 13 13 11 10 9 6 6 4 3 2
5 3 3 2 3 2 3 3 5 7 5 4 3 3 2 1 2 2 2 1 2 3 2 3 3 2 3 4 2 4 3 5 5 2 4 3 2 2 1 4 3 3 3 4 3 4 4 4 4 4 3 8 9 4 2 2 3 3 5 6 7 9 9 10 9 10 10 10 8 6 7 7 8 9 9 10 11 12 12 11 9 8 6 5 4 3 2
3 3 2 3 1 4 4 4 6 5 3 3 2 3 1 3 1 0 1 1 1 0 1 3 2 3 3 5 6 2 3 3 5 5 4 2 1 5 2 3 0 3 5 5 1 4 5 4 3 2 3 6 5 3 2 4 4 5 6 7 9 10 10 10 10 8 9 10 9 9 10 11 11 10 12 14 13 13 12 11 9 8 7 5 3 0 0
2 1 2 2 5 4 4 3 4 4 3 3 3 2 1 1 3 1 2 2 2 2 2 3 2 3 2 3 3 4 3 2 1 2 3 3 2 2 4 4 2 4 5 4 2 2 3 4 3 4 2 4 1 3 2 5 6 7 6 8 8 8 11 12 12 10 9 8 7 7 8 10 11 11 11 13 13 12 11 10 9 9 8 6 4 1 1
2 3 3 3 2 2 3 3 2 3 2 1 1 0 2 1 0 2 2 2 1 1 3 3 3 3 2 3 3 4 1 2 2 1 2 3 2 2 3 2 2 2 3 2 1 3 3 4 4 1 5 2 3 5 6 8 8 10 9 8 9 8 9 11 12 11 8 7 7 7 7 9 10 9 11 13 12 11 10 10 10 9 7 4 4 3 2
3 1 2 3 3 2 2 1 2 2 0 1 1 1 2 1 1 3 1 2 1 3 2 2 3 3 1 1 2 2 3 1 3 1 3 1 2 2 4 2 2 3 3 1 3 3 4 4 6 1 3 2 4 5 6 9 10 10 11 9 8 9 10 11 11 11 8 6 7 7 5 6 6 7 9 11 12 12 11 10 9 8 6 6 5 5 4
3 3 3 3 2 3 2 1 2 1 0 1 1 1 3 4 3 2 3 3 3 2 1 3 1 4 3 3 4 1 3 3 2 2 3 0 2 2 2 3 4 1 1 6 5 5 6 4 5 4 3 4 5 6 7 10 12 12 12 12 12 11 10 10 10 10 8 4 5 4 1 2 3 4 9 11 13 13 11 10 8 7 7 7 6 5 5
3 2 1 2 1 1 0 1 2 1 3 2 3 3 2 3 2 1 2 3 1 1 1 2 3 3 5 3 2 1 2 1 2 3 2 1 4 3 3 4 4 3 4 5 6 5 5 1 3 2 5 7 9 12 13 13 13 13 13 14 13 12 11 11 10 9 7 6 3 4 4 3 3 4 2 6 8 9 10 10 9 8 7 7 6 6 5
2 1 2 2 1 1 1 0 1 2 2 1 2 2 2 2 2 3 1 1 2 1 2 2 3 3 6 1 4 3 1 1 3 2 1 2 4 3 2 4 3 5 5 6 5 7 6 7 7 8 9 11 13 14 14 14 13 12 13 13 13 13 12 11 10 9 8 5 3 5 7 9 8 6 6 7 8 7 7 8 8 8 8 7 7 6 5
2 1 1 1 1 1 2 2 2 1 2 1 1 2 2 2 2 3 1 1 2 2 3 2 3 2 5 4 3 2 2 1 3 1 2 5 4 2 1 4 5 4 6 7 7 8 9 9 9 11 14 15 15 15 15 15 13 13 12 12 13 13 13 12 10 10 7 5 6 8 10 9 10 8 8 8 8 8 9 9 8 8 8 8 7 6 6
1 0 1 2 1 2 3 2 1 1 1 2 2 2 2 2 3 1 2 2 2 3 4 4 4 3 4 3 3 5 4 1 4 0 1 4 3 4 2 4 5 5 4 7 8 9 11 11 13 14 13 13 14 15 15 14 14 14 13 13 13 13 12 12 11 10 8 7 6 10 10 10 11 11 11 11 10 9 10 9 9 8 8 8 8 6 5
1 0 1 1 1 1 1 1 2 2 0 0 0 1 1 2 2 1 2 0 2 2 3 5 5 4 4 3 5 4 3 2 3 1 2 3 3 3 4 6 6 6 5 6 10 11 12 12 13 13 13 13 13 14 14 14 15 15 15 13 12 12 12 12 12 11 9 7 7 10 11 11 11 10 10 12 11 10 9 10 9 8 8 8 7 7 6
1 1 1 1 4 4 1 1 3 2 0 1 2 2 2 2 1 3 1 1 1 2 2 3 2 3 3 4 2 2 2 1 3 2 4 5 3 4 4 5 4 5 8 9 10 11 12 11 12 13 13 14 15 15 15 15 14 13 13 13 12 11 11 12 12 11 10 7 7 10 10 9 8 10 12 11 10 10 9 9 8 8 8 7 7 6 6
1 1 3 3 5 3 0 3 3 4 2 1 1 1 1 2 0 2 2 3 2 4 4 5 5 3 2 1 2 2 1 2 4 4 2 3 3 3 4 5 6 6 8 10 11 11 12 11 11 12 14 16 16 17 14 13 13 12 12 14 12 11 11 12 12 11 10 7 7 11 11 10 9 7 9 10 10 10 9 8 7 7 7 7 6 6 5
1 1 1 2 3 2 3 3 3 3 1 4 4 2 2 1 2 1 0 3 3 5 6 5 4 2 1 1 2 3 3 2 2 3 4 1 2 4 4 5 7 8 9 10 11 11 11 11 12 14 14 15 16 15 14 13 12 13 11 10 11 10 10 10 9 8 7 5 8 11 11 9 8 8 10 12 11 10 8 7 7 7 7 6 6 6 5
Wind_Direction
341 340 340 339 340 343 343 344 344 348 341 334 6 295 325 21 31 17 345 337 299 33 86 85 82 77 86 137 77 79 64 37 30 37 6 77 23 72 53 34 88 49 62 106 101 88 79 34 84 103 91 71 42 19 351 335 324 304 107 215 65 292 245 121 93 109 123 147 111 45 344 272 218 87 17 337 328 343 315 345 340 230 177 219 195 150 112
340 341 340 340 341 343 344 343 346 348 3 332 306 287 34 32 17 33 27 333 282 271 87 95 86 92 106 95 89 69 57 34 52 50 41 29 53 57 70 75 37 86 54 99 100 340 131 76 111 106 80 91 28 31 17 345 37 338 47 330 41 268 108 287 145 168 166 177 180 183 154 234 47 42 46 6 360 319 303 306 296 257 104 312 235 185 148
340 341 341 340 342 344 343 344 343 349 352 336 301 331 349 286 140 42 42 32 353 72 32 100 106 106 98 98 97 104 68 38 43 51 54 43 41 78 60 40 80 82 76 90 87 41 15 128 41 92 94 94 63 51 22 14 50 35 23 343 323 299 32 278 226 202 195 195 202 192 177 156 103 64 48 37 5 358 257 216 193 240 96 273 255 97 109
341 344 342 342 343 343 344 344 344 345 351 315 269 344 268 334 358 54 77 41 85 83 31 52 93 109 112 93 69 89 102 86 54 35 69 47 64 60 87 66 70 93 117 93 87 88 63 111 143 156 121 123 77 31 42 36 46 39 21 329 298 39 76 10 351 341 10 42 47 39 350 154 177 93 39 34 12 356 297 339 223 223 156 131 49 123 130
342 346 344 344 344 343 343 345 343 344 347 343 301 293 330 350 11 356 76 121 78 82 42 59 332 75 339 75 32 86 69 90 76 354 87 42 62 73 37 36 186 94 106 95 88 77 93 92 122 110 116 73 84 58 26 58 46 349 5 358 291 188 181 74 42 50 57 67 63 52 18 97 89 89 70 33 18 1 336 277 44 25 219 122 106 121 139
345 348 347 346 344 344 344 345 345 342 346 297 266 12 344 37 77 5 10 309 56 86 75 12 79 71 338 84 288 90 113 100 95 87 54 72 11 350 81 76 56 79 80 125 106 103 98 115 109 108 98 128 117 108 50 50 31 286 71 337 313 274 191 91 156 99 85 60 62 49 65 58 62 47 19 40 18 20 52 68 37 354 329 104 134 129 132
346 349 349 349 347 345 346 346 346 345 338 304 290 26 66 30 98 56 310 292 60 45 55 20 56 75 56 99 35 108 84 81 52 25 95 47 58 349 103 72 77 86 72 32 111 121 160 115 106 122 138 85 157 141 155 79 14 54 75 61 358 282 79 100 132 127 111 100 82 63 44 84 211 172 163 39 29 74 77 93 94 58 101 114 129 128 122
347 350 351 351 349 348 348 348 348 345 339 298 19 32 342 59 322 102 103 80 92 90 130 64 96 94 1 200 58 37 73 97 117 60 17 98 67 77 93 91 85 89 98 110 110 67 31 112 144 113 131 142 286 64 6 35 95 4 64 338 90 294 110 204 173 178 141 117 163 185 148 283 230 186 211 198 189 167 169 131 120 122 118 97 131 133 133
347 350 353 354 351 351 351 353 352 346 343 91 41 63 14 35 358 332 187 115 54 25 55 130 113 117 101 106 116 117 87 85 70 77 24 63 105 99 92 87 92 89 94 92 86 72 76 74 97 129 328 24 99 314 116 317 51 18 99 49 80 283 121 201 225 232 159 158 186 196 229 226 245 219 203 193 184 195 180 199 151 223 148 153 149 178 149
345 350 354 355 354 354 355 359 355 351 332 31 13 71 55 273 154 273 296 89 314 296 126 123 233 90 56 57 105 72 103 92 121 100 55 65 71 95 99 91 96 91 90 86 82 78 74 80 78 78 90 89 117 81 78 356 5 21 54 318 333 18 154 186 192 232 142 116 219 261 240 228 222 214 189 175 169 66 111 79 141 323 65 184 210 104 82
344 350 354 356 357 356 360 4 0 353 357 39 12 50 15 344 14 238 248 128 144 7 222 80 18 63 124 122 121 113 113 123 13 324 124 121 83 55 85 114 87 86 88 76 49 45 46 33 65 126 149 177 151 149 152 135 268 354 341 169 103 211 246 230 269 261 129 145 202 243 234 223 181 72 99 164 165 182 192 176 164 149 227 9 11 97 116
345 351 355 358 359 358 1 7 4 360 360 30 330 36 21 326 275 283 285 214 105 235 305 60 64 148 145 120 124 125 127 85 81 356 124 116 102 99 98 89 228 115 94 107 114 98 101 150 154 149 64 188 269 246 249 248 151 197 245 306 122 181 226 241 208 256 166 148 198 214 225 186 87 126 111 155 113 187 269 101 170 164 205 136 142 118 112
344 349 355 360 0 359 3 7 6 4 355 0 20 46 12 349 303 335 334 301 116 153 127 110 110 108 122 136 118 109 97 108 96 93 111 135 138 136 42 60 65 91 167 158 163 188 189 137 140 122 103 151 190 233 234 223 194 204 232 204 260 186 219 144 220 251 134 219 203 221 158 78 141 121 149 110 218 149 208 208 196 190 189 157 202 148 136
343 347 355 359 3 2 3 6 5 2 356 340 46 29 13 343 328 329 334 344 105 63 86 121 144 133 150 136 129 128 131 119 108 110 120 132 141 115 111 56 67 96 143 147 167 196 159 184 160 184 161 192 165 211 160 182 192 221 205 208 242 273 293 245 208 191 240 225 215 218 84 173 146 178 190 184 198 189 220 250 173 171 156 186 174 138 167
341 347 354 357 2 6 4 5 4 358 356 339 16 41 26 5 342 327 328 292 102 120 230 229 139 142 149 138 162 158 156 138 168 130 98 119 132 86 85 98 109 123 168 228 170 216 262 198 201 189 153 198 203 165 149 201 150 211 212 222 223 235 253 101 259 187 252 263 235 231 215 240 187 152 117 114 73 52 55 283 155 143 139 171 155 182 150
339 345 354 353 1 7 8 6 3 359 357 337 307 37 48 2 307 285 314 339 269 174 140 56 130 154 163 160 188 238 159 179 141 142 166 174 146 149 136 130 117 248 176 237 287 255 205 233 211 221 204 192 112 141 193 155 181 158 187 195 204 216 238 267 248 230 198 237 251 226 234 167 77 127 129 132 115 127 82 241 236 149 162 165 172 159 139
338 341 351 353 358 5 11 10 2 1 356 354 351 34 46 9 352 334 319 292 274 46 85 138 172 178 166 149 176 227 213 207 173 202 181 178 177 164 140 163 158 233 224 244 199 224 200 220 274 268 86 84 186 121 95 172 204 169 167 191 195 199 204 210 225 242 229 246 233 240 244 203 143 134 143 133 132 142 243 253 184 137 152 152 159 177 152
337 335 346 351 356 0 10 11 4 1 358 352 327 29 53 23 354 306 277 325 321 107 125 162 188 186 205 106 189 87 160 113 213 277 295 109 162 188 161 177 177 130 260 256 213 234 255 249 230 227 161 91 56 150 241 115 191 205 181 193 190 200 213 213 235 229 209 217 254 258 225 132 140 152 145 143 146 235 241 241 105 146 138 154 144 182 140
332 332 339 350 353 359 6 8 6 358 1 355 326 223 97 15 353 316 299 285 314 6 110 164 275 293 27 43 4 136 312 323 281 224 171 180 162 132 154 125 319 191 182 243 228 251 256 169 330 280 264 146 182 226 112 192 198 223 192 187 203 217 220 222 238 243 241 219 235 241 266 83 144 152 160 146 184 212 238 80 122 131 144 140 211 281 293
330 331 333 350 353 355 1 6 3 358 354 357 332 335 70 39 29 357 347 349 338 302 157 187 210 231 211 230 182 187 172 214 233 264 235 214 122 170 179 199 185 257 182 237 234 320 277 249 153 159 249 158 160 103 209 211 153 195 212 220 244 197 206 217 213 229 245 258 248 248 250 130 168 146 158 175 227 57 93 137 123 127 115 164 199 241 281
327 329 331 348 355 350 354 357 2 357 353 354 337 290 168 111 44 17 350 333 318 294 132 102 247 258 237 234 242 260 242 266 183 229 215 36 145 197 219 277 132 185 197 194 253 197 239 250 169 232 18 310 129 198 260 122 197 215 237 225 246 196 231 238 229 204 236 216 221 231 37 98 157 166 200 177 227 94 122 83 164 145 203 217 237 224 221
324 329 329 346 355 346 343 351 1 360 348 356 325 283 260 99 62 22 324 289 282 295 353 38 318 273 268 277 291 283 274 300 341 316 282 164 176 242 8 60 141 233 42 252 227 186 201 253 335 238 220 187 158 236 145 226 229 138 196 226 230 180 224 326 289 162 229 278 270 72 86 138 170 207 328 147 152 142 143 303 315 262 228 163 262 266 233
323 325 335 342 358 343 340 343 359 1 351 352 323 294 335 55 84 356 286 270 235 256 257 234 221 244 249 255 250 259 261 263 284 267 283 283 193 209 236 223 215 190 206 243 284 303 327 269 248 264 269 230 231 221 204 241 278 150 195 196 261 59 271 38 271 261 249 269 274 274 224 175 202 198 185 158 147 154 166 226 243 207 259 254 265 278 268
312 324 335 343 347 346 324 334 346 359 355 355 329 336 5 6 343 301 226 241 296 309 216 188 241 199 159 164 172 194 219 225 229 243 257 283 262 208 202 244 4 149 221 212 305 278 286 251 279 290 258 249 207 239 235 221 228 223 249 201 211 222 196 217 236 251 280 257 193 227 236 220 209 210 176 173 176 173 181 198 225 249 228 228 231 244 265
313 328 338 341 339 337 320 315 338 346 354 335 301 134 275 232 280 310 299 306 299 321 312 196 186 62 88 65 167 209 211 228 199 220 224 224 241 261 297 52 204 263 255 183 168 234 203 251 228 227 250 230 205 248 231 264 233 188 236 243 202 208 180 230 236 246 235 247 76 127 330 254 229 221 212 207 209 204 193 209 212 220 213 222 219 226 249
328 326 336 336 337 331 310 301 319 5 335 18 330 335 326 17 14 281 278 263 257 266 277 276 111 148 133 227 207 2 126 200 201 198 218 226 232 244 259 169 217 167 242 170 207 233 243 243 252 255 251 233 184 254 257 246 301 163 245 272 326 71 136 237 220 238 244 248 254 238 192 214 220 230 234 238 231 218 210 205 202 198 205 209 219 229 260
343 317 324 334 314 315 291 300 297 321 349 297 269 347 291 291 271 268 304 329 285 210 216 245 102 148 198 284 340 178 188 219 213 220 218 219 228 226 235 238 235 208 213 223 233 247 246 252 250 251 236 263 221 246 263 240 237 246 246 218 131 202 239 254 257 251 248 250 257 236 246 247 230 224 224 232 233 237 225 206 213 207 207 211 226 230 236
314 310 310 339 312 293 286 279 292 280 211 248 265 271 263 253 209 246 267 275 291 322 332 320 299 358 342 278 136 257 187 199 212 211 218 215 219 227 229 226 228 234 224 233 232 227 235 241 242 246 261 234 221 241 247 337 22 257 253 236 178 222 241 255 256 254 255 261 275 288 276 268 281 328 232 213 229 222 220 214 210 208 207 211 224 237 239
275 287 308 320 308 286 261 267 313 307 320 269 255 238 193 219 243 209 234 256 288 298 293 286 279 260 273 66 215 199 162 249 230 229 225 219 213 219 227 227 229 233 239 237 246 250 244 248 257 256 253 201 219 247 175 235 237 245 240 242 208 227 233 236 248 261 268 275 282 282 275 267 266 272 270 238 235 224 217 214 208 205 205 206 219 228 251
210 280 321 305 286 278 258 239 229 237 273 275 248 234 219 147 132 213 177 215 278 297 290 317 303 74 54 214 181 191 209 212 234 226 221 223 212 221 225 222 228 234 246 243 247 250 251 254 246 247 96 227 247 26 246 257 253 252 254 300 288 248 236 246 256 261 268 275 277 276 268 265 264 270 257 244 230 226 220 205 198 200 200 205 213 229 241
181 298 287 308 287 264 250 235 225 338 274 247 269 247 247 204 104 154 174 196 190 298 345 283 276 329 253 100 301 263 353 110 192 147 161 220 237 238 227 224 231 220 228 227 233 252 276 240 224 192 98 106 74 234 219 231 247 254 224 19 275 265 259 256 259 262 264 267 275 276 274 263 261 263 249 246 233 215 211 202 193 199 200 201 217 240 252
163 239 298 288 273 244 235 226 239 216 250 268 296 335 21 23 34 117 168 204 182 234 298 302 261 203 176 165 151 100 292 152 160 165 133 203 144 169 165 233 225 209 239 246 220 156 227 232 251 233 206 165 172 228 220 233 245 240 230 246 279 286 277 277 274 266 258 260 267 268 256 252 245 240 240 222 220 212 209 202 194 190 189 211 238 242 242
136 162 233 278 235 214 215 220 234 260 330 338 334 250 267 277 309 271 164 171 209 346 323 260 289 3 242 88 138 149 4 223 191 230 157 184 167 200 188 184 201 217 178 224 193 234 214 226 202 242 213 149 192 221 227 236 252 265 276 272 258 259 267 274 273 269 265 252 240 245 248 253 252 236 231 233 218 206 201 198 197 204 205 215 226 229 241
97 347 241 212 201 202 164 187 149 287 259 244 176 111 141 180 206 307 259 219 303 22 289 295 299 230 241 121 225 113 298 304 228 339 253 129 156 238 218 199 180 232 175 226 199 233 208 215 221 233 108 198 216 243 251 311 28 331 296 289 291 296 298 292 284 274 261 257 248 241 248 255 262 269 238 228 221 209 203 199 204 204 210 222 230 242 255
76 216 256 259 209 159 155 174 191 210 78 87 90 92 115 172 178 155 249 298 225 171 224 211 265 281 248 182 241 112 307 267 280 67 311 117 191 269 216 263 173 250 132 204 252 233 237 192 168 202 237 151 177 221 221 2 338 336 315 310 311 314 306 297 293 294 290 275 262 250 244 248 244 230 229 230 225 209 200 204 204 207 214 221 231 236 242
187 245 162 138 161 189 179 216 250 201 125 58 52 85 112 152 166 174 107 26 338 4 298 41 273 292 331 310 343 83 264 281 266 262 2 324 215 188 260 260 251 199 162 213 258 209 237 124 163 241 120 177 209 171 14 332 320 316 323 315 319 314 307 303 304 300 292 283 273 261 248 239 238 235 233 237 229 207 202 202 198 212 225 232 229 235 243
154 150 156 174 188 211 139 59 69 28 51 73 93 121 144 146 109 139 196 255 185 243 298 312 275 265 273 325 307 10 325 305 257 272 171 237 293 299 222 222 275 40 232 233 234 249 42 139 248 260 234 226 152 130 75 318 312 316 325 332 327 325 323 316 313 311 299 284 270 251 237 236 238 236 235 233 225 206 198 200 199 204 215 227 232 241 259
176 192 202 209 216 192 136 116 59 104 94 106 141 149 177 227 154 138 170 232 155 201 215 224 259 286 197 254 296 67 275 285 334 314 255 92 286 194 164 254 20 296 257 255 300 6 137 223 229 248 236 129 146 139 135 226 303 306 314 325 322 324 328 326 324 324 312 292 266 243 229 228 229 217 212 213 210 203 202 203 206 208 210 214 220 222 239
200 198 219 231 261 40 41 115 121 166 221 163 219 245 160 166 221 208 186 205 173 231 183 242 273 261 263 274 272 141 309 328 307 309 299 79 316 289 146 278 124 239 256 264 178 194 249 215 217 225 211 161 163 98 41 2 337 335 321 318 320 322 324 322 325 325 316 297 288 252 238 241 229 215 205 210 203 200 198 204 201 187 190 196 185 194 233
183 181 155 163 66 86 106 113 146 179 224 238 184 279 205 162 219 232 117 240 240 9 166 227 220 281 303 313 319 319 128 281 305 308 306 317 115 290 36 268 152 271 274 270 175 167 269 278 224 209 181 151 143 83 42 5 348 344 334 321 318 316 319 316 321 329 321 302 281 257 246 243 240 224 202 204 198 193 196 195 183 176 184 168 115 249 295
179 157 191 124 108 136 124 153 177 220 225 218 192 215 308 224 198 224 230 237 220 221 226 297 250 250 202 262 266 297 95 284 325 336 303 283 61 292 248 265 47 276 266 271 78 236 243 260 265 261 100 129 96 6 353 359 349 330 329 320 312 319 317 314 317 326 326 318 293 280 273 256 237 221 212 203 192 187 184 177 170 171 162 160 162 173 118
56 9 62 79 111 124 180 187 227 230 189 334 334 210 227 286 137 191 229 283 48 314 177 211 244 304 353 321 316 301 261 76 306 296 307 270 118 253 279 283 199 247 278 68 336 254 260 258 266 228 121 132 27 341 345 330 334 326 322 319 314 310 304 309 315 319 322 320 303 285 296 275 237 219 195 194 182 169 165 164 162 154 149 139 141 150 132
214 227 184 144 160 162 191 187 207 250 154 186 87 354 235 216 236 321 73 203 161 272 92 209 291 294 204 268 239 195 342 38 277 144 236 300 99 251 271 242 235 252 282 341 265 258 250 259 279 63 109 36 347 351 340 325 320 316 314 315 310 308 309 314 315 315 314 316 311 286 293 275 235 200 191 176 159 151 153 152 149 150 148 147 141 135 127
125 162 188 170 181 123 215 209 183 138 174 225 194 179 197 214 160 190 244 147 179 202 157 297 10 318 326 135 303 309 175 161 172 256 238 98 290 259 263 271 263 337 320 263 252 257 265 310 49 77 11 348 321 344 322 318 316 312 308 309 312 308 305 307 308 309 305 286 273 256 271 324 287 200 159 149 148 149 149 152 152 145 142 146 139 130 119
163 135 203 175 159 152 137 336 241 198 240 169 220 298 0 338 13 240 325 47 264 343 309 252 300 294 309 357 269 148 307 354 100 275 307 289 257 247 254 287 323 292 280 288 283 283 281 349 113 310 338 323 326 319 319 314 312 309 305 302 301 302 302 300 303 305 305 293 261 217 171 95 79 51 72 153 152 152 150 144 145 144 147 140 134 129 121
196 194 183 180 272 255 230 262 139 238 228 226 244 343 343 2 333 308 60 292 279 293 301 338 320 307 300 67 310 341 184 213 252 211 273 258 275 278 338 324 282 283 280 282 299 298 321 353 337 338 342 334 322 319 317 315 312 309 305 300 301 300 298 296 294 296 306 298 218 194 177 157 143 137 146 138 138 139 137 136 146 148 144 142 140 134 130
148 192 257 292 228 192 238 247 205 250 6 294 320 339 339 349 333 320 1 275 282 338 314 331 310 317 315 337 292 196 179 274 281 51 271 270 289 330 223 288 291 285 306 312 308 309 322 328 331 331 335 331 324 319 315 313 312 308 303 298 295 292 291 288 288 288 292 292 217 191 168 165 165 154 131 134 135 135 141 150 151 149 147 143 140 138 134
257 269 264 236 216 195 213 195 14 276 206 307 321 303 324 320 280 224 156 221 296 304 304 321 314 290 252 143 247 307 338 347 292 351 345 314 298 293 336 296 282 307 319 313 312 320 315 324 328 329 332 326 316 313 312 312 310 308 302 299 294 290 287 284 283 283 280 286 223 190 170 168 178 169 158 153 153 157 155 156 156 153 147 148 147 146 143
330 252 264 276 298 272 286 58 264 276 27 201 235 264 211 225 229 84 76 210 260 291 333 327 340 318 312 16 314 301 274 63 282 331 287 263 297 302 299 296 316 312 314 326 321 326 325 326 325 329 323 317 312 310 307 306 306 304 302 299 294 291 287 282 277 278 271 263 247 201 178 178 184 175 169 159 157 157 159 157 158 154 153 153 151 148 143
230 209 221 239 234 209 259 299 260 270 91 208 227 196 193 228 193 106 100 243 257 300 286 228 196 294 343 338 300 299 292 27 322 310 283 296 310 309 302 296 307 311 327 336 324 326 326 329 325 319 313 311 308 306 306 303 300 294 291 290 290 284 283 277 275 269 264 259 248 206 171 165 185 179 164 156 156 154 156 158 156 154 153 152 146 149 147
252 292 279 271 302 31 4 285 348 331 326 12 110 107 161 199 52 92 88 299 299 278 273 348 358 328 324 301 276 284 13 10 274 287 316 308 2 305 292 300 323 344 330 331 329 327 327 328 320 314 313 311 309 310 308 302 299 293 290 289 282 277 275 274 271 266 263 262 248 197 163 161 174 170 143 150 147 154 151 152 152 151 152 148 150 151 144
217 232 214 155 221 291 322 336 304 304 220 261 289 75 264 247 92 73 91 266 283 319 357 353 320 338 301 299 357 333 309 272 259 277 273 27 29 308 337 339 335 331 330 327 325 327 325 319 311 304 304 304 307 310 308 301 295 295 287 280 284 278 271 270 269 265 261 266 213 173 165 158 152 149 149 154 153 156 154 149 148 149 147 146 148 146 142